Time,TemperatureF,DewpointF,PressureIn,WindDirection,WindDirectionDegrees,WindSpeedMPH,WindSpeedGustMPH,Humidity,HourlyPrecipIn,Conditions,Clouds,dailyrainin,SoftwareType,DateUTC
2013-02-26 00:04:00,24.3,22.0,30.19,NNE,13,2.0,2.0,90,0.00,,,0.01,weatherlink.com 1.10,2013-02-26 05:04:00,
2013-02-26 00:19:00,24.1,21.0,30.19,NE,41,0.0,4.0,89,0.00,,,0.00,weatherlink.com 1.10,2013-02-26 05:19:00,
2013-02-26 00:34:00,23.3,21.0,30.18,NE,41,1.0,2.0,91,0.00,,,0.00,weatherlink.com 1.10,2013-02-26 05:34:00,
2013-02-26 00:50:00,22.9,21.0,30.18,NE,41,1.0,3.0,91,0.00,,,0.00,weatherlink.com 1.10,2013-02-26 05:50:00,
2013-02-26 01:05:00,22.7,21.0,30.18,NE,41,2.0,3.0,92,0.00,,,0.00,weatherlink.com 1.10,2013-02-26 06:05:00,
2013-02-26 01:20:00,22.6,21.0,30.18,NE,41,2.0,3.0,92,0.00,,,0.00,weatherlink.com 1.10,2013-02-26 06:20:00,
2013-02-26 01:35:00,22.4,21.0,30.19,NE,41,2.0,3.0,93,0.00,,,0.00,weatherlink.com 1.10,2013-02-26 06:35:00,
2013-02-26 01:50:00,22.0,20.0,30.20,NE,41,0.0,2.0,92,0.00,,,0.00,weatherlink.com 1.10,2013-02-26 06:50:00,
2013-02-26 02:05:00,21.4,20.0,30.21,NE,40,1.0,2.0,93,0.00,,,0.00,weatherlink.com 1.10,2013-02-26 07:05:00,
2013-02-26 02:20:00,21.1,19.0,30.22,NE,40,3.0,3.0,93,0.00,,,0.00,weatherlink.com 1.10,2013-02-26 07:20:00,
2013-02-26 02:35:00,21.1,20.0,30.21,North,5,3.0,4.0,94,0.00,,,0.00,weatherlink.com 1.10,2013-02-26 07:35:00,
2013-02-26 02:50:00,21.1,20.0,30.23,North,5,1.0,3.0,94,0.00,,,0.00,weatherlink.com 1.10,2013-02-26 07:50:00,
2013-02-26 03:05:00,20.7,19.0,30.21,North,5,1.0,2.0,94,0.00,,,0.00,weatherlink.com 1.10,2013-02-26 08:05:00,
2013-02-26 03:20:00,21.4,20.0,30.20,NNW,348,4.0,5.0,95,0.00,,,0.00,weatherlink.com 1.10,2013-02-26 08:20:00,
2013-02-26 03:35:00,21.9,21.0,30.20,North,355,2.0,4.0,95,0.00,,,0.00,weatherlink.com 1.10,2013-02-26 08:35:00,
2013-02-26 03:50:00,21.5,20.0,30.20,North,355,2.0,3.0,93,0.00,,,0.00,weatherlink.com 1.10,2013-02-26 08:50:00,
2013-02-26 04:05:00,20.8,19.0,30.20,North,355,2.0,2.0,92,0.00,,,0.00,weatherlink.com 1.10,2013-02-26 09:05:00,
2013-02-26 04:20:00,20.3,18.0,30.20,North,355,0.0,1.0,92,0.00,,,0.00,weatherlink.com 1.10,2013-02-26 09:20:00,
2013-02-26 04:35:00,20.0,19.0,30.20,North,355,0.0,0.0,94,0.00,,,0.00,weatherlink.com 1.10,2013-02-26 09:35:00,
2013-02-26 04:50:00,19.8,18.0,30.21,North,355,0.0,0.0,94,0.00,,,0.00,weatherlink.com 1.10,2013-02-26 09:50:00,
2013-02-26 05:05:00,19.7,19.0,30.21,North,355,0.0,0.0,95,0.00,,,0.00,weatherlink.com 1.10,2013-02-26 10:05:00,
2013-02-26 05:20:00,19.6,18.0,30.23,North,355,0.0,0.0,95,0.00,,,0.00,weatherlink.com 1.10,2013-02-26 10:20:00,
2013-02-26 05:35:00,19.7,19.0,30.23,North,355,0.0,0.0,95,0.00,,,0.00,weatherlink.com 1.10,2013-02-26 10:35:00,
2013-02-26 05:50:00,19.6,18.0,30.22,North,355,0.0,1.0,95,0.00,,,0.00,weatherlink.com 1.10,2013-02-26 10:50:00,
2013-02-26 06:05:00,20.3,19.0,30.23,North,355,0.0,1.0,96,0.00,,,0.00,weatherlink.com 1.10,2013-02-26 11:05:00,
2013-02-26 06:20:00,20.7,20.0,30.23,North,355,0.0,0.0,95,0.00,,,0.00,weatherlink.com 1.10,2013-02-26 11:20:00,
2013-02-26 06:35:00,21.1,20.0,30.22,North,355,0.0,0.0,96,0.00,,,0.00,weatherlink.com 1.10,2013-02-26 11:35:00,
2013-02-26 06:50:00,21.5,21.0,30.23,North,355,0.0,0.0,96,0.00,,,0.00,weatherlink.com 1.10,2013-02-26 11:50:00,
2013-02-26 07:05:00,21.3,20.0,30.23,North,355,0.0,0.0,95,0.00,,,0.00,weatherlink.com 1.10,2013-02-26 12:05:00,
2013-02-26 07:20:00,21.4,20.0,30.22,North,355,0.0,0.0,95,0.00,,,0.00,weatherlink.com 1.10,2013-02-26 12:20:00,
2013-02-26 07:35:00,22.0,21.0,30.22,North,355,0.0,0.0,96,0.00,,,0.00,weatherlink.com 1.10,2013-02-26 12:35:00,
2013-02-26 07:50:00,23.0,22.0,30.23,North,355,0.0,0.0,96,0.00,,,0.00,weatherlink.com 1.10,2013-02-26 12:50:00,
2013-02-26 08:05:00,24.5,24.0,30.24,WNW,288,0.0,2.0,96,0.00,,,0.00,weatherlink.com 1.10,2013-02-26 13:05:00,
2013-02-26 08:20:00,25.7,25.0,30.25,SSW,198,3.0,4.0,95,0.00,,,0.00,weatherlink.com 1.10,2013-02-26 13:20:00,
2013-02-26 08:35:00,26.5,25.0,30.25,SSW,212,3.0,6.0,94,0.00,,,0.00,weatherlink.com 1.10,2013-02-26 13:35:00,
2013-02-26 08:50:00,27.3,26.0,30.23,SSW,203,3.0,4.0,93,0.00,,,0.00,weatherlink.com 1.10,2013-02-26 13:50:00,
2013-02-26 09:06:00,28.2,26.0,30.23,SSW,206,5.0,7.0,92,0.00,,,0.00,weatherlink.com 1.10,2013-02-26 14:06:00,
2013-02-26 09:21:00,28.6,26.0,30.23,SSW,196,6.0,7.0,90,0.00,,,0.00,weatherlink.com 1.10,2013-02-26 14:21:00,
2013-02-26 09:36:00,29.4,27.0,30.25,SSW,211,3.0,7.0,89,0.00,,,0.00,weatherlink.com 1.10,2013-02-26 14:36:00,
2013-02-26 09:51:00,29.8,26.0,30.25,SSE,163,6.0,10.0,85,0.00,,,0.00,weatherlink.com 1.10,2013-02-26 14:51:00,
2013-02-26 10:06:00,29.9,26.0,30.25,SSE,163,7.0,10.0,85,0.00,,,0.00,weatherlink.com 1.10,2013-02-26 15:06:00,
2013-02-26 10:21:00,29.9,26.0,30.25,South,184,4.0,8.0,85,0.00,,,0.00,weatherlink.com 1.10,2013-02-26 15:21:00,
2013-02-26 10:36:00,30.5,25.0,30.25,South,169,3.0,12.0,81,0.00,,,0.00,weatherlink.com 1.10,2013-02-26 15:36:00,
2013-02-26 10:51:00,31.6,25.0,30.24,South,171,3.0,7.0,78,0.00,,,0.00,weatherlink.com 1.10,2013-02-26 15:51:00,
2013-02-26 11:06:00,32.0,25.0,30.23,SW,223,6.0,9.0,74,0.00,,,0.00,weatherlink.com 1.10,2013-02-26 16:06:00,
2013-02-26 11:21:00,32.9,25.0,30.23,South,190,2.0,8.0,74,0.00,,,0.00,weatherlink.com 1.10,2013-02-26 16:21:00,
2013-02-26 11:36:00,33.5,25.0,30.23,SSW,192,3.0,13.0,70,0.00,,,0.00,weatherlink.com 1.10,2013-02-26 16:36:00,
2013-02-26 11:51:00,34.4,25.0,30.23,SSW,202,5.0,7.0,69,0.00,,,0.00,weatherlink.com 1.10,2013-02-26 16:51:00,
2013-02-26 12:06:00,34.6,25.0,30.23,South,172,7.0,9.0,69,0.00,,,0.00,weatherlink.com 1.10,2013-02-26 17:06:00,
2013-02-26 12:21:00,33.4,25.0,30.22,SSW,205,6.0,9.0,71,0.00,,,0.00,weatherlink.com 1.10,2013-02-26 17:21:00,
2013-02-26 12:36:00,32.7,25.0,30.22,South,184,1.0,11.0,72,0.00,,,0.00,weatherlink.com 1.10,2013-02-26 17:36:00,
2013-02-26 12:51:00,33.1,25.0,30.21,South,170,3.0,8.0,72,0.00,,,0.00,weatherlink.com 1.10,2013-02-26 17:51:00,
2013-02-26 13:06:00,33.4,25.0,30.20,SSW,194,3.0,7.0,72,0.00,,,0.00,weatherlink.com 1.10,2013-02-26 18:06:00,
2013-02-26 13:21:00,33.1,25.0,30.19,SSW,197,2.0,8.0,72,0.00,,,0.00,weatherlink.com 1.10,2013-02-26 18:21:00,
2013-02-26 13:36:00,33.4,25.0,30.18,SW,219,6.0,9.0,71,0.00,,,0.00,weatherlink.com 1.10,2013-02-26 18:36:00,
2013-02-26 13:51:00,33.0,25.0,30.17,SSW,199,4.0,11.0,71,0.00,,,0.00,weatherlink.com 1.10,2013-02-26 18:51:00,
2013-02-26 14:06:00,33.5,25.0,30.17,South,174,3.0,12.0,71,0.00,,,0.00,weatherlink.com 1.10,2013-02-26 19:06:00,
2013-02-26 14:21:00,33.9,25.0,30.16,South,186,3.0,9.0,70,0.00,,,0.00,weatherlink.com 1.10,2013-02-26 19:21:00,
2013-02-26 14:36:00,33.2,25.0,30.16,East,84,2.0,11.0,71,0.00,,,0.00,weatherlink.com 1.10,2013-02-26 19:36:00,
2013-02-26 14:51:00,33.1,25.0,30.16,SSW,205,3.0,13.0,72,0.00,,,0.00,weatherlink.com 1.10,2013-02-26 19:51:00,
2013-02-26 15:06:00,33.2,25.0,30.15,South,182,4.0,10.0,72,0.00,,,0.00,weatherlink.com 1.10,2013-02-26 20:06:00,
2013-02-26 15:21:00,32.6,24.0,30.16,SSE,165,3.0,16.0,71,0.00,,,0.00,weatherlink.com 1.10,2013-02-26 20:21:00,
2013-02-26 15:36:00,32.6,24.0,30.15,SSW,210,7.0,8.0,72,0.00,,,0.00,weatherlink.com 1.10,2013-02-26 20:36:00,
2013-02-26 15:51:00,32.3,25.0,30.15,South,191,3.0,9.0,73,0.00,,,0.00,weatherlink.com 1.10,2013-02-26 20:51:00,
2013-02-26 16:06:00,32.0,24.0,30.14,SSE,154,1.0,10.0,73,0.00,,,0.00,weatherlink.com 1.10,2013-02-26 21:06:00,
2013-02-26 16:21:00,31.7,24.0,30.14,SE,137,4.0,8.0,74,0.00,,,0.00,weatherlink.com 1.10,2013-02-26 21:21:00,
2013-02-26 16:36:00,31.4,24.0,30.13,SSW,192,2.0,9.0,75,0.00,,,0.00,weatherlink.com 1.10,2013-02-26 21:36:00,
2013-02-26 16:51:00,31.0,24.0,30.12,SSE,159,6.0,10.0,76,0.00,,,0.00,weatherlink.com 1.10,2013-02-26 21:51:00,
2013-02-26 17:06:00,30.5,24.0,30.12,SSW,207,5.0,9.0,76,0.00,,,0.00,weatherlink.com 1.10,2013-02-26 22:06:00,
2013-02-26 17:21:00,30.1,24.0,30.11,SSW,213,6.0,13.0,77,0.00,,,0.00,weatherlink.com 1.10,2013-02-26 22:21:00,
2013-02-26 17:36:00,29.8,24.0,30.11,South,177,4.0,12.0,78,0.00,,,0.00,weatherlink.com 1.10,2013-02-26 22:36:00,
2013-02-26 18:06:00,29.1,24.0,30.11,SSW,206,7.0,16.0,81,0.00,,,0.00,weatherlink.com 1.10,2013-02-26 23:06:00,
2013-02-26 18:21:00,28.8,24.0,30.11,South,178,7.0,16.0,82,0.00,,,0.00,weatherlink.com 1.10,2013-02-26 23:21:00,
2013-02-26 18:36:00,28.7,24.0,30.11,South,174,8.0,15.0,83,0.00,,,0.00,weatherlink.com 1.10,2013-02-26 23:36:00,
2013-02-26 18:51:00,28.6,24.0,30.12,SSE,153,4.0,13.0,84,0.00,,,0.00,weatherlink.com 1.10,2013-02-26 23:51:00,
2013-02-26 19:06:00,28.5,25.0,30.11,South,184,10.0,14.0,85,0.00,,,0.00,weatherlink.com 1.10,2013-02-27 00:06:00,
2013-02-26 19:21:00,28.5,24.0,30.11,ESE,106,3.0,14.0,84,0.00,,,0.00,weatherlink.com 1.10,2013-02-27 00:21:00,
2013-02-26 19:36:00,28.3,24.0,30.11,SSW,200,4.0,13.0,83,0.00,,,0.00,weatherlink.com 1.10,2013-02-27 00:36:00,
2013-02-26 19:52:00,28.2,24.0,30.10,South,190,7.0,16.0,83,0.00,,,0.00,weatherlink.com 1.10,2013-02-27 00:52:00,
2013-02-26 20:07:00,28.0,24.0,30.09,SSE,153,3.0,14.0,83,0.00,,,0.00,weatherlink.com 1.10,2013-02-27 01:07:00,
2013-02-26 20:22:00,27.8,23.0,30.09,South,171,3.0,12.0,81,0.00,,,0.00,weatherlink.com 1.10,2013-02-27 01:22:00,
2013-02-26 20:37:00,27.7,23.0,30.08,South,178,1.0,9.0,82,0.00,,,0.00,weatherlink.com 1.10,2013-02-27 01:37:00,
2013-02-26 20:52:00,27.7,22.0,30.07,SSE,155,0.0,11.0,80,0.00,,,0.00,weatherlink.com 1.10,2013-02-27 01:52:00,
2013-02-26 21:07:00,27.7,23.0,30.06,South,170,3.0,11.0,81,0.00,,,0.00,weatherlink.com 1.10,2013-02-27 02:07:00,
2013-02-26 21:22:00,27.6,23.0,30.05,SW,232,6.0,17.0,83,0.00,,,0.00,weatherlink.com 1.10,2013-02-27 02:22:00,
2013-02-26 21:37:00,27.5,23.0,30.05,ESE,121,3.0,11.0,84,0.00,,,0.00,weatherlink.com 1.10,2013-02-27 02:37:00,
2013-02-26 21:52:00,27.6,23.0,30.02,SSE,164,1.0,11.0,84,0.00,,,0.00,weatherlink.com 1.10,2013-02-27 02:52:00,
2013-02-26 22:07:00,27.5,23.0,30.01,South,169,1.0,14.0,84,0.00,,,0.00,weatherlink.com 1.10,2013-02-27 03:07:00,
2013-02-26 22:22:00,27.4,23.0,30.01,SSW,194,3.0,10.0,84,0.00,,,0.00,weatherlink.com 1.10,2013-02-27 03:22:00,
2013-02-26 22:37:00,27.2,23.0,30.01,SSW,198,4.0,14.0,85,0.00,,,0.00,weatherlink.com 1.10,2013-02-27 03:37:00,
2013-02-26 22:52:00,26.8,23.0,30.00,SSW,194,2.0,14.0,86,0.00,,,0.00,weatherlink.com 1.10,2013-02-27 03:52:00,
2013-02-26 23:07:00,25.9,23.0,29.99,South,178,9.0,15.0,89,0.00,,,0.00,weatherlink.com 1.10,2013-02-27 04:07:00,
2013-02-26 23:22:00,25.2,23.0,29.98,SSW,206,4.0,11.0,92,0.00,,,0.00,weatherlink.com 1.10,2013-02-27 04:22:00,
2013-02-26 23:37:00,25.0,23.0,29.98,WSW,248,1.0,12.0,93,0.00,,,0.00,weatherlink.com 1.10,2013-02-27 04:37:00,
2013-02-26 23:52:00,24.7,23.0,29.96,South,182,5.0,12.0,94,0.00,,,0.00,weatherlink.com 1.10,2013-02-27 04:52:00,